Location: Newark
(52.3735°N, 16.9806°E)
Time: 01:37:10
(UTC+00:00)

Nauka - Pass Details

Date: 29 September 2021
Orbit: 417 x 423 km, 51.6° (Epoch: 16 October)

Event Time Altitude Azimuth Distance (km) Brightness Sun altitude
Rises 18:12:58 0° 280° (W) 2,366 ? -15.8°
Reaches altitude 10° 18:15:06 10° 275° (W) 1,501 ? -16.1°
Maximum altitude 18:18:23 49° 200° (SSW) 553 ? -16.6°
Enters shadow 18:19:17 36° 152° (SSE) 677 ? -16.7°
